Eastman, GA

10:08 AM EST on January 20, 2017 (GMT -0500)
Heart Of Georgia Regional

Weather History for KEZM - November, 2013

Change the Weather History Date:

Saturday, November 16, 2013

  Actual Average Record
Temperature  
Mean Temperature 68 °F -  
Max Temperature 77 °F 66 °F 77 °F (2013)
Min Temperature 58 °F 42 °F 38 °F (2014)
Cooling Degree Days 2    
Growing Degree Days 18 (Base 50)    
Moisture  
Dew Point 62 °F    
Average Humidity 87    
Maximum Humidity 100    
Minimum Humidity 61    
Precipitation  
Precipitation 0.00 in - - ()
Sea Level Pressure  
Sea Level Pressure 30.19 in    
Wind  
Wind Speed 2 mph (East)    
Max Wind Speed 9 mph    
Max Gust Speed -    
Visibility 6 miles    
Events Fog    
Averages and records for this station are not official NWS values.
T = Trace of Precipitation, MM = Missing Value Source: NWS Daily Summary

Daily Weather History Graph

Daily Weather History Graph

Search for Another Location

Airport or City:

Trip Planner

Search our weather history database for the weather conditions in past years. The results will help you decide how hot, cold, wet, or windy it might be!

Date:

Astronomy

Nov. 16, 2013 Rise Set
Actual Time 7:02 AM EST 5:31 PM EST
Civil Twilight 6:36 AM EST 5:57 PM EST
Nautical Twilight 6:07 AM EST 6:27 PM EST
Astronomical Twilight 5:37 AM EST 6:56 PM EST
Moon 5:04 PM EST (11/16) 6:01 AM EST (11/16)
Length of Visible Light 11h 21m
Length of Day
10h 28m
Waxing Gibbous, 99% of the Moon is Illuminated
Nov 16
Waxing Gibbous
Nov 17
Full
Nov 25
Last Quarter
Dec 2
New
Dec 9
First Quarter

Hourly Weather History & Observations

Time (EST) Temp. Dew Point Humidity Pressure Visibility Wind Dir Wind Speed Gust Speed Precip Events Conditions
12:15 AM 58.1 °F 58.1 °F 100% 30.20 in 10.0 mi Calm Calm - N/A   Overcast
12:35 AM 58.5 °F 58.3 °F 99% 30.20 in 10.0 mi Calm Calm - N/A   Overcast
12:55 AM 59.4 °F 59.0 °F 99% 30.19 in 10.0 mi Calm Calm - N/A   Overcast
1:15 AM 61.2 °F 61.2 °F 100% 30.19 in 2.5 mi Calm Calm - N/A   Overcast
1:35 AM 59.0 °F 59.0 °F 100% 30.19 in 4.0 mi Calm Calm - N/A   Overcast
1:55 AM 61.7 °F 61.7 °F 100% 30.19 in 0.8 mi Calm Calm - N/A   Overcast
2:15 AM 61.7 °F 61.7 °F 100% 30.20 in 0.5 mi Calm Calm - N/A Fog Fog
2:35 AM 61.7 °F 61.7 °F 100% 30.19 in 0.5 mi Calm Calm - N/A Fog Fog
2:55 AM 61.3 °F 61.3 °F 100% 30.20 in 0.5 mi Calm Calm - N/A Fog Fog
3:15 AM 61.0 °F 61.0 °F 100% 30.20 in 0.8 mi ENE 3.5 mph - N/A   Overcast
3:35 AM 60.8 °F 60.8 °F 100% 30.20 in 0.8 mi Calm Calm - N/A   Overcast
3:55 AM 60.4 °F 60.4 °F 100% 30.19 in 1.2 mi Calm Calm - N/A   Overcast
4:15 AM 59.9 °F 59.9 °F 100% 30.19 in 1.5 mi Calm Calm - N/A   Overcast
4:35 AM 60.1 °F 60.1 °F 100% 30.20 in 0.8 mi Calm Calm - N/A   Overcast
4:55 AM 60.3 °F 60.3 °F 100% 30.20 in 0.5 mi Calm Calm - N/A Fog Fog
5:15 AM 60.3 °F 60.3 °F 100% 30.20 in 0.2 mi Calm Calm - N/A Fog Fog
5:35 AM 60.3 °F 60.3 °F 100% 30.20 in 0.2 mi Calm Calm - N/A Fog Fog
5:55 AM 60.3 °F 60.3 °F 100% 30.20 in 0.2 mi East 3.5 mph - N/A Fog Fog
6:15 AM 60.3 °F 60.3 °F 100% 30.20 in 0.2 mi East 3.5 mph - N/A Fog Fog
6:35 AM 60.1 °F 60.1 °F 100% 30.21 in 0.2 mi ESE 3.5 mph - N/A Fog Fog
6:55 AM 59.9 °F 59.9 °F 100% 30.20 in 0.2 mi Calm Calm - N/A Fog Fog
7:15 AM 60.1 °F 60.1 °F 100% 30.21 in 0.2 mi Calm Calm - N/A Fog Fog
7:35 AM 60.3 °F 60.3 °F 100% 30.21 in 0.2 mi East 3.5 mph - N/A Fog Fog
7:55 AM 60.6 °F 60.6 °F 100% 30.21 in 0.2 mi Calm Calm - N/A Fog Fog
8:15 AM 61.0 °F 61.0 °F 100% 30.22 in 0.2 mi East 4.6 mph - N/A Fog Fog
8:35 AM 61.3 °F 61.3 °F 100% 30.22 in 0.2 mi Calm Calm - N/A Fog Fog
8:55 AM 61.7 °F 61.7 °F 100% 30.23 in 0.2 mi East 3.5 mph - N/A Fog Fog
9:15 AM 61.7 °F 61.7 °F 100% 30.23 in 0.2 mi ENE 4.6 mph - N/A Fog Fog
9:35 AM 62.1 °F 62.1 °F 100% 30.24 in 0.5 mi East 4.6 mph - N/A Fog Fog
9:55 AM 62.2 °F 62.2 °F 100% 30.24 in 1.0 mi East 5.8 mph - N/A   Overcast
10:15 AM 62.8 °F 62.8 °F 100% 30.25 in 2.5 mi Calm Calm - N/A   Overcast
10:35 AM 63.9 °F 63.9 °F 100% 30.25 in 7.0 mi ENE 4.6 mph - N/A   Overcast
10:55 AM 64.6 °F 63.5 °F 96% 30.25 in 10.0 mi East 5.8 mph - N/A   Overcast
11:15 AM 65.3 °F 63.5 °F 94% 30.25 in 10.0 mi East 4.6 mph - N/A   Overcast
11:35 AM 65.7 °F 63.3 °F 92% 30.24 in 10.0 mi East 6.9 mph - N/A   Overcast
11:55 AM 66.9 °F 62.8 °F 87% 30.23 in 10.0 mi East 6.9 mph - N/A   Overcast
12:15 PM 68.4 °F 63.3 °F 84% 30.22 in 10.0 mi ENE 6.9 mph - N/A   Overcast
12:35 PM 69.3 °F 63.0 °F 80% 30.21 in 10.0 mi ESE 5.8 mph - N/A   Overcast
12:55 PM 71.8 °F 63.5 °F 75% 30.20 in 10.0 mi ENE 5.8 mph - N/A   Mostly Cloudy
1:15 PM 73.6 °F 63.9 °F 72% 30.19 in 10.0 mi NE 9.2 mph - N/A   Mostly Cloudy
1:35 PM 73.6 °F 63.7 °F 71% 30.18 in 10.0 mi ENE 6.9 mph - N/A   Mostly Cloudy
1:55 PM 74.7 °F 63.7 °F 69% 30.17 in 10.0 mi East 6.9 mph - N/A   Scattered Clouds
2:15 PM 75.0 °F 63.5 °F 67% 30.17 in 10.0 mi ENE 4.6 mph - N/A   Clear
2:35 PM 76.6 °F 63.7 °F 64% 30.16 in 10.0 mi ENE 6.9 mph - N/A   Scattered Clouds
2:55 PM 74.7 °F 63.5 °F 68% 30.15 in 10.0 mi ENE 5.8 mph - N/A   Scattered Clouds
3:15 PM 74.8 °F 63.5 °F 68% 30.15 in 10.0 mi East 5.8 mph - N/A   Mostly Cloudy
3:35 PM 76.1 °F 63.5 °F 65% 30.15 in 10.0 mi East 5.8 mph - N/A   Scattered Clouds
3:55 PM 76.8 °F 63.5 °F 63% 30.14 in 10.0 mi East 5.8 mph - N/A   Scattered Clouds
4:15 PM 77.2 °F 63.3 °F 62% 30.14 in 10.0 mi East 5.8 mph - N/A   Scattered Clouds
4:35 PM 77.0 °F 62.6 °F 61% 30.13 in 10.0 mi East 6.9 mph - N/A   Overcast
4:55 PM 74.8 °F 63.0 °F 66% 30.13 in 10.0 mi ENE 4.6 mph - N/A   Overcast
5:15 PM 73.8 °F 63.5 °F 70% 30.14 in 10.0 mi Calm Calm - N/A   Overcast
5:35 PM 72.5 °F 63.7 °F 74% 30.15 in 10.0 mi Calm Calm - N/A   Overcast
5:55 PM 72.0 °F 63.9 °F 76% 30.15 in 10.0 mi Calm Calm - N/A   Overcast
6:15 PM 71.1 °F 63.9 °F 78% 30.16 in 10.0 mi Calm Calm - N/A   Overcast
6:35 PM 71.8 °F 64.0 °F 77% 30.16 in 10.0 mi ENE 4.6 mph - N/A   Overcast
6:55 PM 71.8 °F 64.0 °F 77% 30.16 in 10.0 mi ENE 4.6 mph - N/A   Overcast
7:15 PM 71.6 °F 64.0 °F 77% 30.17 in 10.0 mi ESE 4.6 mph - N/A   Overcast
7:35 PM 71.2 °F 64.4 °F 79% 30.17 in 10.0 mi Calm Calm - N/A   Overcast
7:55 PM 71.1 °F 64.4 °F 79% 30.17 in 10.0 mi ENE 3.5 mph - N/A   Overcast
8:15 PM 70.7 °F 64.4 °F 80% 30.18 in 10.0 mi ENE 3.5 mph - N/A   Overcast
8:35 PM 70.0 °F 64.4 °F 82% 30.19 in 10.0 mi Calm Calm - N/A   Overcast
8:55 PM 70.0 °F 64.4 °F 82% 30.18 in 10.0 mi East 3.5 mph - N/A   Overcast
9:15 PM 70.2 °F 64.2 °F 81% 30.19 in 10.0 mi East 4.6 mph - N/A   Overcast
9:35 PM 70.2 °F 64.2 °F 81% 30.19 in 10.0 mi East 3.5 mph - N/A   Overcast
9:55 PM 69.8 °F 64.4 °F 83% 30.20 in 10.0 mi Calm Calm - N/A   Overcast
10:15 PM 69.8 °F 64.2 °F 82% 30.19 in 10.0 mi East 3.5 mph - N/A   Overcast
10:35 PM 69.8 °F 64.2 °F 82% 30.19 in 10.0 mi Calm Calm - N/A   Overcast
10:55 PM 69.4 °F 64.4 °F 84% 30.19 in 10.0 mi Calm Calm - N/A   Overcast
11:15 PM 69.8 °F 64.4 °F 83% 30.19 in 10.0 mi Calm Calm - N/A   Overcast
11:35 PM 69.4 °F 64.4 °F 84% 30.18 in 10.0 mi East 3.5 mph - N/A   Overcast
11:55 PM 69.3 °F 64.4 °F 84% 30.18 in 10.0 mi SE 3.5 mph - N/A   Overcast